• In Uzbekistan
  • List of Countries
  • For 7 days
  • Water Temperature
  • Satellite Maps
  • Weather Map
  • Weather Widgets
  • user-avatar
    Login

    Hourly Weather Asuan

    Today, 17 January, Wednesday

    Time Temperature Precipitation Wind Pressure Humidity
    00:00 +18°C° 0 mm 4 mps 746 mmHg 32%
    01:00 +17°C° 0 mm 4 mps 746 mmHg 35%
    02:00 +15°C° 0 mm 4 mps 746 mmHg 38%
    03:00 +15°C° 0 mm 4 mps 745 mmHg 39%
    04:00 +14°C° 0 mm 4 mps 745 mmHg 41%
    05:00 +14°C° 0 mm 4 mps 745 mmHg 43%
    06:00 +14°C° 0 mm 4 mps 746 mmHg 42%
    07:00 +14°C° 0 mm 4 mps 746 mmHg 41%
    08:00 +15°C° 0 mm 5 mps 746 mmHg 40%
    09:00 +17°C° 0 mm 5 mps 746 mmHg 35%
    10:00 +20°C° 0 mm 5 mps 746 mmHg 29%
    11:00 +22°C° 0 mm 6 mps 746 mmHg 24%
    12:00 +23°C° 0 mm 5 mps 745 mmHg 22%
    13:00 +25°C° 0 mm 5 mps 745 mmHg 19%
    14:00 +26°C° 0 mm 5 mps 744 mmHg 17%
    15:00 +25°C° 0 mm 5 mps 744 mmHg 18%
    16:00 +23°C° 0 mm 5 mps 744 mmHg 20%
    17:00 +22°C° 0 mm 5 mps 744 mmHg 22%
    18:00 +21°C° 0 mm 5 mps 744 mmHg 25%
    19:00 +20°C° 0 mm 5 mps 745 mmHg 29%
    20:00 +17°C° 0 mm 5 mps 745 mmHg 32%
    21:00 +16°C° 0 mm 5 mps 745 mmHg 36%
    22:00 +15°C° 0 mm 5 mps 745 mmHg 39%
    23:00 +15°C° 0 mm 5 mps 745 mmHg 42%

    Tomorrow, 18 January, Thursday

    Time Temperature Precipitation Wind Pressure Humidity
    00:00 +14°C° 0 mm 5 mps 745 mmHg 44%
    01:00 +14°C° 0 mm 4 mps 745 mmHg 45%
    02:00 +13°C° 0 mm 4 mps 745 mmHg 47%
    03:00 +13°C° 0 mm 4 mps 745 mmHg 48%
    04:00 +12°C° 0 mm 4 mps 745 mmHg 49%
    05:00 +12°C° 0 mm 4 mps 745 mmHg 51%
    06:00 +12°C° 0 mm 4 mps 745 mmHg 49%
    07:00 +13°C° 0 mm 4 mps 746 mmHg 48%
    08:00 +13°C° 0 mm 4 mps 747 mmHg 47%
    09:00 +15°C° 0 mm 5 mps 746 mmHg 42%
    10:00 +17°C° 0 mm 5 mps 746 mmHg 37%
    11:00 +20°C° 0 mm 5 mps 746 mmHg 31%
    12:00 +21°C° 0 mm 4 mps 746 mmHg 28%
    13:00 +22°C° 0 mm 4 mps 745 mmHg 25%
    14:00 +23°C° 0 mm 4 mps 744 mmHg 22%
    15:00 +23°C° 0 mm 4 mps 744 mmHg 22%
    16:00 +22°C° 0 mm 4 mps 744 mmHg 23%
    17:00 +22°C° 0 mm 4 mps 744 mmHg 23%
    18:00 +21°C° 0 mm 4 mps 745 mmHg 26%
    19:00 +19°C° 0 mm 4 mps 745 mmHg 28%
    20:00 +17°C° 0 mm 5 mps 746 mmHg 31%
    21:00 +17°C° 0 mm 5 mps 746 mmHg 32%
    22:00 +16°C° 0 mm 5 mps 746 mmHg 33%
    23:00 +15°C° 0 mm 5 mps 746 mmHg 35%

    Day after tomorrow, 19 January, Friday

    Time Temperature Precipitation Wind Pressure Humidity
    00:00 +15°C° 0 mm 5 mps 746 mmHg 35%
    01:00 +14°C° 0 mm 4 mps 746 mmHg 36%
    02:00 +14°C° 0 mm 4 mps 746 mmHg 37%
    03:00 +13°C° 0 mm 4 mps 746 mmHg 39%
    04:00 +13°C° 0 mm 4 mps 746 mmHg 41%
    05:00 +13°C° 0 mm 4 mps 746 mmHg 42%
    06:00 +13°C° 0 mm 5 mps 747 mmHg 43%
    07:00 +13°C° 0 mm 6 mps 747 mmHg 44%
    08:00 +14°C° 0 mm 7 mps 748 mmHg 45%
    09:00 +15°C° 0 mm 7 mps 748 mmHg 42%
    10:00 +17°C° 0 mm 7 mps 748 mmHg 39%
    11:00 +18°C° 0 mm 7 mps 748 mmHg 37%
    12:00 +20°C° 0 mm 7 mps 747 mmHg 32%
    13:00 +21°C° 0 mm 6 mps 746 mmHg 27%
    14:00 +22°C° 0 mm 6 mps 746 mmHg 22%
    15:00 +21°C° 0 mm 6 mps 746 mmHg 23%
    16:00 +21°C° 0 mm 6 mps 746 mmHg 23%
    17:00 +20°C° 0 mm 6 mps 746 mmHg 24%
    18:00 +19°C° 0 mm 5 mps 747 mmHg 26%
    19:00 +16°C° 0 mm 5 mps 748 mmHg 29%
    20:00 +15°C° 0 mm 5 mps 748 mmHg 31%
    21:00 +14°C° 0 mm 5 mps 748 mmHg 33%
    22:00 +14°C° 0 mm 5 mps 748 mmHg 36%
    23:00 +13°C° 0 mm 4 mps 749 mmHg 38%

    20 January, Saturday

    Time Temperature Precipitation Wind Pressure Humidity
    00:00 +12°C° 0 mm 4 mps 748 mmHg 40%
    01:00 +12°C° 0 mm 4 mps 748 mmHg 41%
    02:00 +12°C° 0 mm 4 mps 748 mmHg 42%
    03:00 +11°C° 0 mm 4 mps 748 mmHg 44%
    04:00 +11°C° 0 mm 4 mps 748 mmHg 45%
    05:00 +11°C° 0 mm 4 mps 748 mmHg 46%
    06:00 +12°C° 0 mm 4 mps 748 mmHg 45%
    07:00 +12°C° 0 mm 4 mps 749 mmHg 43%
    08:00 +13°C° 0 mm 5 mps 749 mmHg 42%
    09:00 +15°C° 0 mm 5 mps 749 mmHg 36%
    10:00 +17°C° 0 mm 6 mps 748 mmHg 31%
    11:00 +21°C° 0 mm 6 mps 748 mmHg 25%
    12:00 +22°C° 0 mm 6 mps 747 mmHg 23%
    13:00 +23°C° 0 mm 6 mps 746 mmHg 22%
    14:00 +24°C° 0 mm 6 mps 746 mmHg 20%
    15:00 +25°C° 0 mm 5 mps 746 mmHg 21%
    16:00 +25°C° 0 mm 4 mps 745 mmHg 22%
    17:00 +24°C° 0 mm 3 mps 745 mmHg 23%
    18:00 +22°C° 0 mm 4 mps 746 mmHg 27%
    19:00 +21°C° 0 mm 4 mps 746 mmHg 31%
    20:00 +20°C° 0 mm 4 mps 747 mmHg 35%
    21:00 +19°C° 0 mm 4 mps 746 mmHg 40%
    22:00 +19°C° 0 mm 4 mps 746 mmHg 46%
    23:00 +17°C° 0 mm 5 mps 746 mmHg 52%

    21 January, Sunday

    Time Temperature Precipitation Wind Pressure Humidity
    00:00 +18°C° 0 mm 4 mps 746 mmHg 52%
    01:00 +17°C° 0 mm 4 mps 745 mmHg 52%
    02:00 +17°C° 0 mm 4 mps 745 mmHg 52%
    03:00 +15°C° 0 mm 4 mps 745 mmHg 53%
    04:00 +15°C° 0 mm 4 mps 745 mmHg 54%
    05:00 +14°C° 0 mm 3 mps 745 mmHg 56%
    06:00 +14°C° 0 mm 3 mps 745 mmHg 54%
    07:00 +16°C° 0 mm 3 mps 746 mmHg 52%
    08:00 +16°C° 0 mm 3 mps 746 mmHg 50%
    09:00 +18°C° 0 mm 3 mps 746 mmHg 43%
    10:00 +21°C° 0 mm 3 mps 746 mmHg 37%
    11:00 +24°C° 0 mm 3 mps 745 mmHg 30%
    12:00 +25°C° 0 mm 2 mps 745 mmHg 28%
    13:00 +26°C° 0 mm 1 mps 744 mmHg 26%
    14:00 +27°C° 0 mm 1 mps 743 mmHg 24%
    15:00 +26°C° 0 mm 1 mps 743 mmHg 25%
    16:00 +25°C° 0 mm 1 mps 743 mmHg 25%
    17:00 +25°C° 0 mm 1 mps 743 mmHg 25%
    18:00 +23°C° 0 mm 1 mps 743 mmHg 28%
    19:00 +22°C° 0 mm 1 mps 744 mmHg 30%
    20:00 +21°C° 0 mm 1 mps 744 mmHg 32%
    21:00 +20°C° 0 mm 2 mps 744 mmHg 32%
    22:00 +19°C° 0 mm 2 mps 744 mmHg 33%
    23:00 +19°C° 0 mm 2 mps 744 mmHg 33%

    22 January, Monday

    Time Temperature Precipitation Wind Pressure Humidity
    00:00 +19°C° 0 mm 2 mps 744 mmHg 34%
    01:00 +18°C° 0 mm 2 mps 744 mmHg 34%
    02:00 +18°C° 0 mm 2 mps 743 mmHg 35%
    03:00 +18°C° 0 mm 3 mps 743 mmHg 35%
    04:00 +17°C° 0 mm 3 mps 743 mmHg 35%
    05:00 +17°C° 0 mm 3 mps 743 mmHg 35%
    06:00 +18°C° 0 mm 3 mps 744 mmHg 33%
    07:00 +18°C° 0 mm 3 mps 744 mmHg 31%
    08:00 +19°C° 0 mm 3 mps 745 mmHg 29%
    09:00 +21°C° 0 mm 3 mps 745 mmHg 26%
    10:00 +23°C° 0 mm 4 mps 745 mmHg 23%
    11:00 +25°C° 0 mm 4 mps 745 mmHg 20%
    12:00 +26°C° 0 mm 4 mps 744 mmHg 19%
    13:00 +27°C° 0 mm 4 mps 744 mmHg 17%
    14:00 +27°C° 0 mm 5 mps 743 mmHg 16%
    15:00 +26°C° 0 mm 4 mps 743 mmHg 15%
    16:00 +26°C° 0 mm 4 mps 743 mmHg 15%
    17:00 +25°C° 0 mm 4 mps 743 mmHg 15%
    18:00 +22°C° 0 mm 5 mps 744 mmHg 18%
    19:00 +21°C° 0 mm 5 mps 744 mmHg 21%
    20:00 +19°C° 0 mm 5 mps 744 mmHg 23%
    21:00 +19°C° 0 mm 5 mps 745 mmHg 27%
    22:00 +17°C° 0 mm 5 mps 745 mmHg 32%
    23:00 +16°C° 0 mm 5 mps 745 mmHg 36%
    Show more